Regional Weather Roundup
Issued by NWS

Home | Current Version | Previous Version | Text Only | Print | Product List | Glossary Off
Versions: 1 2 3 4 5 6 7 8 9 10 11 12 13 14 15 16 17 18 19 20 21 22 23 24 25 26 27 28 29 30 31 32 33 34 35 36 37 38 39 40 41 42 43 44 45 46 47 48 49 50

000
ASUS44 KMEG 222300
RWRTN
TENNESSEE HOURLY STATE WEATHER ROUNDUP
NATIONAL WEATHER SERVICE MEMPHIS TN
500 PM CST SUN JAN 22 2017

TNZ002-004-019-021-049-052-054-088>092-230000-
WEST TENNESSEE

CITY           SKY/WX    TMP DP  RH WIND       PRES   REMARKS
MEMPHIS INTL   NOT AVBL
NWS MEMPHIS      N/A     53 N/A N/A MISG        N/A
JACKSON        CLOUDY    56  55  97 N8        29.31R
DYERSBURG      CLOUDY    55  54  94 NE6       29.34R
UNION CITY     CLOUDY    57  57 100 N8        29.33S
PARIS          CLOUDY    57  50  77 CALM      29.32S
$$

TNZ008-025-027-028-033-062-065-066-230000-
NORTH MIDDLE TENNESSEE

CITY           SKY/WX    TMP DP  RH WIND       PRES   REMARKS
NASHVILLE      CLOUDY    63  50  62 NE6       29.28F
CLARKSVILLE    CLOUDY    61  51  70 NE10      29.32R
SMYRNA         CLOUDY    62  52  69 NE7       29.28F
CROSSVILLE     CLOUDY    57  51  80 NE8       29.31F
$$

TNZ061-075-076-078-094-096-097-230000-
SOUTH MIDDLE TENNESSEE

CITY           SKY/WX    TMP DP  RH WIND       PRES   REMARKS
TULLAHOMA      CLOUDY    55  54  94 N8        29.25F
WINCHESTER     CLOUDY    57  55  94 N6        29.23F
MCMINNVILLE    CLOUDY    61  54  77 N8        29.26F
COLUMBIA       MOCLDY    59  59 100 N3        29.25F
SHELBYVILLE    CLOUDY    61  55  82 N6        29.26F
$$

TNZ017-018-042-046-047-230000-
NORTHEAST TENNESSEE

CITY           SKY/WX    TMP DP  RH WIND       PRES   REMARKS
TRI CITIES     CLOUDY    60  48  64 VRB7      29.36F
$$

TNZ012-013-036-069-073-074-230000-
CENTRAL EAST TENNESSEE

CITY           SKY/WX    TMP DP  RH WIND       PRES   REMARKS
KNOXVILLE      CLOUDY    61  53  75 NE12      29.27F
OAK RIDGE      CLOUDY    61  54  77 VRB5      29.29F
GATLINBURG     PTCLDY    61  52  72 NE5       29.27F
$$

TNZ083-085-099-230000-
SOUTHEAST TENNESSEE

CITY           SKY/WX    TMP DP  RH WIND       PRES   REMARKS
CHATTANOOGA    LGT RAIN  60  56  86 N10       29.19F
$$

SKY/WX REPORTED AS FAIR MEANS FEW OR NO CLOUDS BELOW
12 THOUSAND FEET.





USA.gov is the U.S. government's official web portal to all federal, state and local government web resources and services.